Vertical_Velocity
4 -3 -8 4 1 1 -2 2 3 -3 -2 -1 4 -1 -0 -2 -7 -4 3 1 4 5 5 4 1 -0 -0 -3 -3 -5 -1 -7 -4 2 1 7 -4 -4 2 1 6 2 -2 -1
2 -12 8 1 1 -2 3 3 -9 -5 -3 1 8 -2 1 -1 -1 3 2 -1 -6 -5 -2 -1 1 -0 -0 1 2 2 0 -0 -3 -3 4 -5 4 13 -8 2 3 6 3 -0
2 -2 3 0 0 -1 1 1 -4 4 -5 -0 4 -2 -5 -0 -1 -2 -1 -2 -4 -4 -1 -1 1 2 2 2 2 1 -1 -4 -3 -7 -8 -3 -9 -4 3 -7 -3 7 2 -0
1 -1 -0 6 -9 11 -1 2 1 -0 1 -3 -3 -9 -5 -8 1 -2 -4 -4 -1 -1 -1 -1 -1 -1 -3 -0 1 1 5 3 1 1 -1 -7 -7 -14 -5 4 -7 -4 5 6
0 1 3 -1 -2 -1 -4 2 1 1 1 4 -0 2 -3 -3 -4 -5 -0 -1 -1 -1 1 2 -1 0 -1 1 2 1 -1 -2 -1 -3 -6 -9 -7 -6 -6 -2 2 -13 3 -2
-3 8 -4 -3 7 5 6 2 3 2 3 3 2 5 -6 1 -1 0 -2 -2 -4 -3 -1 -2 -2 -2 -2 -2 -6 -6 -3 -5 -5 -3 -4 -7 -9 -8 -6 -4 -5 -3 -7 3
5 -6 -2 7 2 5 4 6 -3 -3 -1 -6 1 -0 -23 -4 1 -1 -3 -1 -4 -3 -4 -7 -5 -6 -7 -7 -6 -5 -6 -4 -6 -5 -5 -5 -5 -6 -5 -5 -1 -0 -3 0
-1 -5 -1 -1 4 -1 1 3 -5 -3 -2 -5 5 -4 -12 -1 -1 -1 1 -0 -1 -2 -4 -6 -6 -5 -4 -6 -6 -4 -4 -2 -2 -1 -1 -2 -3 -5 -3 -3 -4 -0 -0 -3
-1 -3 0 0 2 3 -5 -1 5 3 2 2 -3 -7 -4 -9 -7 -1 0 2 -0 -3 -2 -1 -1 -5 -3 -2 -4 -3 -2 -2 -3 -3 -5 -2 -2 -2 -2 -1 -4 -1 2 3
2 -2 -1 -4 -1 -2 4 -1 -2 -1 -2 -1 -4 -3 -8 -7 0 0 -3 -0 0 -2 0 -0 -4 -5 -4 -4 -5 -4 -2 -5 -3 -3 -4 -3 -3 -1 -2 -2 -2 -0 2 2
4 5 2 1 -5 2 1 -2 -1 3 3 -1 -1 -14 -9 -2 -2 -2 -2 -1 -0 -3 -3 -3 -4 -4 -3 -6 -6 -1 -2 0 -4 0 -1 -1 -1 -2 -2 -1 1 1 2 4
-0 2 -0 -3 0 2 -0 2 4 4 -8 -3 8 -49 -9 -1 -0 -0 -1 2 -0 -3 -3 -2 0 -1 -2 -3 1 -2 1 -2 0 -1 -5 -2 2 4 4 5 4 1 2 4
-5 2 0 -2 -1 -0 -0 -3 2 2 3 -9 7 -21 3 -5 1 3 0 2 -2 -2 -3 -1 -2 -1 -1 -0 -4 1 -1 -1 -1 -5 -5 1 6 5 3 6 7 2 2 3
7 2 -6 -9 1 2 0 1 -2 5 9 -8 -14 -3 -5 -1 -1 0 -2 -1 -1 -2 -3 -1 -1 0 -2 -2 -2 1 1 1 -2 -4 -1 7 10 9 1 3 4 5 1 2
4 -2 1 0 -2 -5 -1 1 -2 7 -3 8 -17 -10 4 2 1 -1 -0 -1 0 -1 -1 -1 -0 0 -4 -4 -3 0 1 2 -2 -4 0 0 5 4 7 4 4 3 1 -3
-0 -0 -1 -4 -0 1 -2 -9 6 -4 -0 -7 5 -28 0 3 1 0 1 1 -0 -1 -1 -1 -3 -2 1 -0 1 -2 -1 1 0 -0 -2 -1 2 4 4 4 0 6 -0 -3
6 0 0 -8 0 -0 -9 -9 4 -0 1 5 -6 7 2 -2 -0 -1 0 1 -0 -1 -1 -2 -1 -1 1 -0 -1 -0 0 -1 1 -0 0 1 2 2 1 0 2 0 0 -1
-1 1 6 -3 -1 -1 -15 -0 0 -2 1 2 -2 -0 2 2 -1 2 4 0 -0 -1 -3 -2 -0 1 -0 1 -1 -1 -0 -0 0 0 1 0 1 1 1 2 -0 3 2 1
-2 5 0 -3 -1 -11 -22 -2 1 -1 -7 1 -1 -0 2 -2 -1 -1 1 0 -1 -0 -3 1 -0 0 -0 0 -0 -1 -0 -1 -2 3 3 0 1 2 0 2 -2 -2 1 2
6 4 8 1 0 -1 -2 0 -1 -1 -11 -2 -2 -2 -1 -2 -4 2 0 -0 -0 -2 -0 -0 -1 -0 0 0 0 -0 -0 -2 -0 0 1 -1 -1 2 5 -2 2 -0 1 -1
2 4 -5 1 -3 -13 -4 -1 -0 1 -8 -2 -3 -1 -2 -2 -0 -1 0 -1 -2 -1 -1 -1 -0 -0 -1 -0 -0 -2 -0 1 0 -1 -1 1 2 1 1 -1 -0 -2 -2 -2
-2 -3 -5 5 6 -16 1 2 -2 3 1 -2 -2 -2 -1 -2 -1 -0 0 -0 -2 -1 0 -0 -1 1 0 0 1 -2 -1 -1 -1 -1 -2 0 -0 -1 0 -0 -1 -2 -1 1
-5 -18 -8 -10 -17 -2 -1 -3 -0 3 5 -1 -1 -1 -2 -2 -1 -0 2 -2 -1 -1 1 -1 1 1 1 1 1 -0 1 2 -1 -2 1 1 -0 1 1 2 -1 1 -0 -2
0 2 -5 11 -3 -2 -4 -2 1 -1 2 1 1 -1 0 -1 -2 -1 0 -0 0 -1 -1 -1 0 1 -1 -0 0 -3 1 -1 -1 -2 -1 0 3 3 3 3 2 -1 -0 -2
5 6 3 -12 0 -2 -4 2 2 0 -0 2 2 1 2 -0 -2 -1 -2 -0 -0 -0 -1 1 -0 0 0 1 -0 2 -0 -3 1 1 3 2 0 -2 -2 -1 0 1 -0 2
-3 -8 -10 -7 3 -1 0 -0 1 -1 -0 0 2 3 -0 1 0 -0 -1 -0 1 1 1 0 0 1 -0 -0 1 1 -1 1 2 0 -0 -1 0 1 0 -3 -4 -1 -1 -3
Height
3103 3102 3103 3106 3105 3106 3105 3104 3101 3103 3105 3102 3105 3103 3100 3098 3096 3095 3094 3093 3090 3088 3086 3084 3082 3081 3079 3077 3077 3076 3074 3072 3069 3067 3067 3067 3066 3066 3066 3067 3066 3065 3064 3063
3100 3095 3100 3099 3100 3101 3102 3100 3098 3098 3099 3099 3099 3098 3094 3091 3090 3088 3087 3087 3086 3084 3080 3077 3074 3072 3069 3068 3066 3064 3063 3061 3059 3057 3055 3053 3053 3055 3054 3053 3054 3054 3053 3052
3093 3096 3095 3095 3096 3097 3097 3097 3097 3096 3094 3094 3092 3091 3087 3085 3084 3081 3081 3080 3078 3076 3073 3069 3067 3065 3062 3060 3057 3055 3052 3051 3049 3047 3046 3044 3042 3039 3039 3040 3039 3040 3039 3039
3088 3089 3090 3090 3091 3094 3091 3094 3093 3093 3091 3089 3089 3085 3082 3080 3077 3076 3076 3074 3071 3069 3067 3064 3061 3058 3054 3051 3048 3045 3043 3040 3038 3036 3034 3031 3028 3027 3024 3021 3023 3023 3023 3023
3086 3086 3086 3087 3087 3089 3090 3090 3090 3089 3087 3085 3084 3085 3072 3073 3072 3071 3070 3069 3067 3065 3062 3059 3055 3052 3048 3043 3039 3035 3032 3028 3024 3021 3018 3015 3012 3008 3005 3003 3001 3003 3004 3005
3082 3083 3083 3086 3087 3086 3087 3087 3086 3085 3083 3080 3077 3079 3065 3066 3065 3066 3066 3064 3063 3060 3058 3054 3050 3046 3041 3037 3032 3027 3022 3017 3012 3008 3004 2999 2993 2989 2986 2984 2982 2984 2985 2986
3077 3077 3080 3082 3082 3083 3082 3084 3083 3083 3082 3077 3072 3072 3064 3063 3061 3061 3060 3059 3058 3057 3054 3050 3045 3041 3036 3030 3024 3018 3012 3007 3001 2995 2990 2984 2977 2973 2970 2969 2967 2966 2968 2969
3074 3075 3076 3078 3078 3079 3078 3080 3080 3078 3079 3072 3071 3064 3058 3060 3059 3057 3054 3054 3052 3051 3048 3045 3040 3035 3028 3022 3015 3008 3002 2996 2989 2982 2975 2968 2961 2956 2954 2953 2952 2952 2954 2956
3073 3072 3074 3076 3076 3077 3075 3076 3076 3075 3073 3070 3063 3059 3057 3056 3056 3053 3051 3051 3048 3046 3042 3039 3034 3028 3021 3013 3005 2997 2992 2985 2978 2970 2963 2955 2949 2944 2941 2941 2940 2939 2940 2943
3070 3071 3071 3073 3075 3074 3073 3073 3073 3073 3074 3068 3058 3054 3049 3050 3051 3049 3048 3047 3044 3041 3037 3032 3026 3020 3013 3007 3000 2993 2986 2979 2972 2963 2952 2943 2937 2934 2932 2931 2930 2928 2928 2931
3066 3068 3067 3068 3069 3070 3070 3068 3069 3069 3067 3062 3056 3046 3046 3047 3045 3044 3044 3043 3041 3038 3033 3028 3021 3016 3011 3004 2997 2990 2984 2977 2971 2960 2947 2937 2931 2928 2927 2927 2926 2924 2923 2924
3061 3063 3061 3063 3066 3064 3065 3063 3062 3062 3059 3055 3053 3034 3041 3042 3041 3040 3040 3039 3036 3032 3028 3024 3019 3015 3009 3004 2997 2990 2985 2980 2970 2957 2945 2935 2930 2927 2926 2926 2926 2924 2922 2923
3057 3056 3058 3059 3062 3059 3057 3056 3056 3056 3053 3043 3049 3033 3037 3037 3037 3036 3035 3033 3030 3027 3023 3019 3016 3013 3008 3004 2999 2994 2988 2981 2971 2962 2951 2941 2934 2929 2927 2927 2927 2925 2924 2924
3053 3051 3051 3052 3054 3055 3053 3050 3051 3050 3044 3038 3035 3030 3031 3032 3032 3031 3030 3028 3026 3023 3019 3017 3014 3011 3008 3004 3000 2995 2990 2984 2976 2969 2959 2950 2941 2935 2933 2931 2929 2926 2925 2924
3049 3046 3046 3047 3049 3048 3044 3042 3042 3039 3035 3032 3026 3024 3025 3027 3026 3025 3025 3023 3021 3018 3016 3015 3013 3010 3008 3006 3003 2998 2994 2988 2982 2976 2967 2959 2953 2947 2943 2938 2935 2933 2930 2926
3043 3041 3041 3040 3042 3041 3034 3033 3029 3027 3024 3021 3020 3012 3016 3018 3020 3020 3020 3018 3017 3015 3014 3013 3012 3011 3009 3007 3004 3000 2997 2991 2986 2982 2975 2969 2963 2958 2953 2949 2945 2942 2938 2935
3038 3038 3038 3035 3036 3033 3027 3022 3020 3017 3015 3016 3012 3010 3010 3011 3013 3014 3014 3013 3012 3012 3012 3012 3011 3011 3009 3007 3005 3002 2999 2994 2991 2987 2981 2975 2970 2966 2962 2957 2955 2952 2947 2944
3032 3034 3035 3032 3031 3029 3020 3017 3016 3014 3011 3010 3007 3006 3006 3007 3007 3007 3008 3009 3009 3010 3010 3011 3011 3010 3009 3008 3006 3003 3000 2997 2995 2992 2987 2981 2977 2973 2969 2966 2962 2958 2955 2952
3028 3028 3029 3029 3026 3021 3016 3013 3013 3010 3006 3004 3003 3002 3002 3002 3002 3003 3004 3005 3006 3008 3010 3010 3010 3009 3009 3008 3006 3005 3002 3001 2998 2995 2990 2986 2982 2979 2976 2973 2969 2965 2963 2960
3021 3023 3026 3024 3025 3020 3012 3010 3009 3008 3003 3000 2999 2999 2999 2999 2998 3001 3001 3003 3005 3007 3009 3010 3009 3009 3009 3008 3007 3006 3005 3004 3001 2998 2994 2990 2987 2984 2981 2978 2975 2971 2968 2965
3015 3016 3017 3020 3020 3012 3008 3008 3007 3008 3006 3000 2999 2997 2997 2997 2998 2999 3000 3002 3004 3006 3008 3009 3009 3010 3010 3009 3008 3007 3007 3006 3003 2999 2995 2992 2990 2987 2983 2980 2979 2976 2973 2970
3008 3010 3011 3015 3016 3009 3001 3003 3004 3003 2999 2998 2997 2996 2995 2995 2996 2998 3000 3002 3004 3006 3007 3008 3010 3010 3010 3009 3009 3008 3008 3007 3004 3000 2997 2995 2993 2990 2987 2984 2982 2979 2976 2974
3002 3001 3003 3005 3001 3000 2999 2999 2999 2998 2997 2996 2995 2994 2994 2995 2996 2998 3000 3002 3004 3006 3007 3008 3009 3009 3010 3010 3010 3010 3010 3008 3005 3002 3000 2998 2995 2992 2990 2988 2985 2982 2979 2976
2994 2995 2995 2997 2994 2995 2995 2995 2995 2995 2994 2993 2992 2992 2992 2994 2995 2997 2999 3001 3003 3005 3006 3008 3008 3008 3009 3010 3011 3010 3010 3009 3007 3004 3002 3000 2998 2996 2993 2989 2986 2982 2979 2975
2989 2990 2988 2989 2989 2991 2991 2991 2990 2988 2988 2988 2988 2989 2990 2991 2993 2995 2997 3000 3001 3003 3005 3006 3007 3008 3009 3010 3010 3010 3010 3009 3008 3006 3005 3002 2999 2995 2992 2989 2985 2981 2977 2972
2982 2984 2984 2984 2985 2986 2986 2985 2984 2982 2982 2982 2983 2984 2985 2987 2990 2992 2994 2997 3000 3002 3003 3005 3006 3007 3008 3009 3010 3010 3009 3009 3008 3007 3004 3002 2999 2996 2992 2987 2982 2977 2973 2969